Wind_Speed
69 71 72 73 75 76 77 79 80 80 77 75 75 75 75 75 76 76 76 76 77 78 78 79 79 79 80 81 83 84 86 87 88 88 89 90 90 89
72 73 74 75 76 77 78 79 80 81 79 76 76 75 75 75 74 75 75 75 76 76 76 76 76 75 76 76 77 79 80 81 82 83 85 86 87 87
74 75 76 77 77 77 78 78 78 79 79 75 74 74 73 73 73 73 73 73 73 73 73 73 73 72 72 72 72 72 73 75 76 77 79 80 82 84
76 76 77 77 77 77 77 78 78 78 78 75 72 71 71 71 71 70 70 70 69 69 69 68 68 68 68 68 68 68 69 70 72 73 74 76 77 79
76 77 77 77 77 78 78 78 78 77 76 75 72 71 70 69 69 68 67 66 64 63 63 62 62 63 63 63 64 65 66 66 67 68 69 71 73 75
77 77 78 79 79 79 78 77 76 74 73 72 70 68 66 65 64 63 61 60 58 58 57 57 57 57 57 58 59 59 60 61 62 63 64 65 67 69
77 78 78 79 78 77 75 73 71 69 67 66 64 62 59 58 57 56 55 53 52 51 51 51 51 51 51 51 52 53 54 55 55 56 57 59 60 63
78 78 77 75 73 71 69 67 65 63 61 59 56 54 52 51 49 49 48 47 45 45 46 46 46 45 45 46 47 48 49 49 50 51 51 52 54 56
77 76 73 69 67 64 62 60 58 56 55 53 51 48 46 44 43 42 42 42 41 40 41 40 42 42 42 43 44 45 46 46 46 47 48 49 50 51
74 71 67 63 61 59 56 53 51 50 49 48 46 43 41 40 40 39 39 38 37 36 37 36 37 38 39 40 41 42 42 43 43 43 44 46 47 48
68 65 61 58 55 53 52 49 47 45 45 44 41 39 38 37 37 37 36 35 33 33 35 34 34 35 36 37 38 39 40 41 41 41 42 42 44 45
62 59 56 53 50 49 48 46 44 42 41 39 38 36 36 36 36 35 34 33 32 31 32 33 33 34 33 34 36 37 38 39 40 40 40 40 41 42
57 53 50 49 47 46 45 44 42 40 37 36 35 35 35 34 34 34 34 33 31 30 30 32 32 32 33 33 34 35 36 37 38 38 38 39 40 40
54 50 48 46 45 43 42 41 40 38 36 34 33 33 33 33 33 33 33 32 31 30 30 31 31 31 31 31 32 33 34 35 36 36 37 38 38 39
51 48 46 44 42 41 40 39 37 36 35 33 33 32 32 32 32 32 32 32 31 31 31 30 31 31 30 30 31 32 33 34 35 35 35 36 37 38
49 46 43 42 41 39 37 36 35 35 34 32 31 31 31 32 32 32 32 32 31 31 31 31 30 30 30 29 29 30 31 32 33 34 34 35 35 36
45 42 40 39 37 35 34 34 34 33 32 31 30 30 30 30 31 31 32 31 31 31 30 30 30 30 29 29 28 29 30 30 31 32 33 33 34 35
43 40 37 36 34 33 32 32 32 31 31 30 29 29 29 28 29 29 29 30 30 30 30 29 29 29 28 28 28 29 29 29 30 31 31 32 33 34
40 37 35 33 32 32 31 30 30 30 30 29 28 29 28 28 28 28 28 28 28 29 29 29 29 29 28 28 28 29 29 29 29 29 30 30 31 33
37 35 33 32 31 31 30 30 29 29 29 28 28 28 27 27 27 27 27 27 27 27 28 29 29 29 29 28 28 29 29 29 29 29 29 30 31 31
35 34 32 31 31 30 29 29 28 28 28 28 27 27 27 27 27 27 27 26 26 26 27 27 28 28 28 27 27 28 29 29 29 29 30 30 30 31
33 32 31 30 30 29 29 28 28 27 27 27 26 27 27 27 26 26 25 25 24 25 26 26 27 27 27 26 27 28 28 28 28 29 29 30 30 31
32 31 30 30 30 29 28 28 27 27 27 26 26 26 26 25 25 25 25 24 24 24 25 25 26 26 26 26 26 27 27 27 27 26 27 28 28 29
Wind_Direction
295 294 293 293 292 292 291 290 289 288 286 285 284 282 280 278 277 275 274 274 273 272 271 270 268 267 265 263 262 261 260 258 257 255 254 252 251 249
296 295 295 294 293 293 292 291 290 289 288 286 285 283 281 279 277 276 275 274 273 273 272 271 269 267 265 263 262 261 260 258 257 255 253 252 250 248
297 297 296 295 294 293 292 291 290 289 289 287 285 283 281 280 279 277 276 275 274 273 271 270 268 266 265 263 262 261 259 258 256 255 253 251 249 247
298 298 297 296 295 294 293 292 291 290 289 287 285 283 282 281 279 278 277 276 275 273 271 269 267 265 264 262 261 260 259 258 256 255 253 251 249 247
299 298 298 297 296 294 293 292 290 289 288 287 285 283 282 280 279 278 277 275 274 272 270 269 267 265 264 262 261 260 259 258 257 255 253 251 249 247
300 299 298 297 296 294 293 291 290 289 288 287 285 284 282 281 279 277 275 274 273 271 270 268 266 265 264 262 261 260 259 258 256 255 254 252 250 247
301 300 299 297 296 294 293 292 290 289 288 287 285 284 282 280 278 276 274 272 271 271 269 268 267 265 264 262 260 259 258 257 256 254 253 252 250 247
302 301 299 297 296 295 293 292 291 290 288 287 285 284 282 280 277 275 274 272 270 269 268 267 267 266 264 261 260 259 258 257 255 254 252 251 249 247
303 301 299 297 295 294 293 292 291 290 289 287 286 284 282 279 277 276 275 273 271 268 266 265 265 264 262 261 260 259 258 256 255 253 251 250 248 246
303 301 299 297 296 294 293 292 291 289 288 287 286 284 282 279 277 277 276 274 271 268 266 264 262 262 261 261 261 260 258 257 255 253 251 249 248 246
303 301 299 298 296 294 293 292 291 289 287 286 285 282 280 278 278 278 277 275 272 268 266 265 262 261 260 260 260 259 258 257 255 254 252 249 248 246
303 301 299 297 295 294 293 292 291 288 286 284 283 281 279 279 278 278 276 275 273 269 266 265 263 261 260 260 260 259 258 256 254 253 252 250 248 246
303 301 299 296 295 294 293 292 291 289 286 284 281 279 278 278 277 276 276 275 273 271 268 266 264 263 262 259 260 259 258 257 255 253 251 249 248 246
304 301 299 296 295 293 292 291 289 287 286 284 281 280 278 276 276 276 275 274 274 272 270 268 265 264 262 260 259 259 259 258 255 253 251 249 247 245
304 302 299 296 294 292 290 289 288 287 285 284 281 279 278 277 276 275 274 274 273 272 271 269 266 265 264 262 260 259 258 257 255 254 251 249 246 244
302 301 298 296 294 291 289 288 288 287 285 284 281 280 278 277 275 274 273 272 272 271 270 268 266 265 265 263 261 259 258 257 255 254 252 249 247 244
301 299 297 294 292 290 289 288 288 287 286 284 282 281 280 278 275 274 273 271 270 270 269 267 266 265 264 264 262 260 259 257 255 254 252 250 247 244
302 300 297 295 292 290 289 288 288 287 285 284 283 282 280 278 276 275 274 272 269 267 266 265 264 264 264 263 262 260 258 256 255 254 252 250 248 245
301 300 298 295 293 291 290 288 287 286 286 285 284 282 280 278 277 277 276 274 270 266 264 263 263 264 264 262 261 260 259 257 256 254 252 249 247 245
302 301 298 296 294 292 291 290 288 286 286 285 284 283 281 279 278 278 276 274 270 267 264 263 263 263 262 261 260 260 259 257 255 253 251 249 247 245
301 301 299 297 295 294 293 291 289 287 286 286 284 282 281 279 278 278 276 274 271 269 266 264 263 263 262 261 260 259 259 257 255 253 252 250 247 245
301 301 299 297 296 295 293 291 289 287 286 286 285 283 281 279 278 277 276 273 272 270 267 266 264 264 263 262 260 258 258 258 256 254 252 250 248 244
301 301 299 298 297 296 294 292 289 287 286 284 284 283 281 280 278 277 274 273 272 271 269 267 265 264 264 262 260 258 257 256 255 254 252 249 246 243
Height
5621 5614 5608 5601 5593 5586 5578 5571 5565 5563 5564 5560 5553 5547 5541 5536 5532 5528 5526 5524 5522 5521 5520 5520 5520 5520 5521 5522 5524 5526 5529 5533 5538 5543 5548 5555 5562 5569
5602 5595 5587 5579 5572 5564 5556 5549 5541 5535 5535 5536 5528 5522 5516 5512 5508 5504 5502 5500 5498 5496 5495 5495 5495 5495 5496 5497 5499 5501 5504 5507 5511 5516 5522 5528 5534 5542
5582 5573 5566 5557 5549 5541 5534 5527 5519 5512 5508 5510 5503 5497 5491 5487 5484 5480 5477 5475 5474 5472 5470 5470 5470 5471 5472 5473 5475 5477 5479 5482 5486 5491 5496 5502 5508 5517
5561 5552 5544 5535 5527 5519 5511 5504 5496 5489 5483 5483 5481 5474 5469 5464 5460 5457 5454 5451 5450 5448 5447 5447 5447 5448 5450 5451 5453 5455 5457 5460 5464 5468 5474 5480 5486 5490
5539 5530 5522 5513 5505 5496 5488 5480 5473 5466 5459 5456 5456 5451 5447 5442 5437 5435 5432 5430 5428 5427 5426 5426 5426 5427 5429 5430 5432 5434 5436 5440 5443 5447 5450 5456 5462 5468
5518 5508 5499 5489 5481 5472 5464 5457 5449 5443 5437 5432 5430 5428 5424 5420 5415 5413 5411 5409 5408 5407 5406 5406 5407 5408 5410 5411 5413 5414 5416 5419 5422 5426 5430 5435 5440 5446
5497 5486 5476 5466 5457 5448 5440 5434 5427 5421 5415 5411 5408 5406 5404 5400 5396 5392 5391 5391 5391 5390 5389 5389 5390 5391 5392 5393 5394 5396 5399 5401 5404 5408 5412 5416 5421 5426
5475 5464 5454 5444 5435 5426 5419 5412 5406 5400 5395 5391 5389 5387 5385 5381 5378 5376 5374 5375 5376 5376 5373 5375 5374 5376 5376 5377 5379 5381 5383 5385 5388 5392 5395 5399 5403 5408
5451 5441 5432 5423 5414 5407 5400 5394 5388 5382 5377 5374 5372 5370 5368 5366 5363 5362 5360 5360 5361 5361 5360 5361 5361 5362 5362 5363 5364 5366 5368 5371 5373 5377 5380 5384 5388 5393
5429 5419 5410 5403 5395 5388 5383 5378 5373 5368 5363 5359 5356 5355 5353 5351 5350 5348 5347 5347 5348 5348 5347 5349 5349 5349 5350 5351 5352 5353 5355 5357 5360 5363 5366 5370 5374 5378
5410 5400 5391 5385 5378 5371 5366 5363 5359 5355 5350 5346 5344 5342 5340 5339 5337 5336 5335 5335 5336 5336 5335 5336 5338 5338 5339 5340 5340 5341 5342 5344 5347 5350 5353 5356 5360 5364
5392 5383 5375 5368 5363 5357 5352 5348 5345 5341 5338 5335 5333 5331 5329 5327 5326 5324 5324 5323 5324 5325 5325 5325 5326 5326 5328 5329 5329 5329 5331 5332 5335 5337 5340 5343 5347 5351
5375 5368 5361 5354 5348 5343 5338 5334 5331 5328 5325 5323 5322 5320 5318 5316 5315 5314 5313 5312 5313 5314 5314 5314 5315 5315 5317 5318 5318 5319 5320 5321 5323 5326 5328 5331 5335 5339
5358 5352 5346 5340 5335 5330 5326 5322 5319 5316 5314 5312 5310 5309 5307 5306 5305 5304 5303 5302 5302 5303 5303 5303 5304 5305 5306 5307 5308 5309 5309 5310 5312 5314 5317 5320 5323 5327
5343 5337 5332 5327 5322 5318 5314 5310 5307 5305 5303 5301 5299 5298 5297 5295 5294 5293 5293 5292 5292 5292 5292 5293 5293 5294 5295 5296 5297 5298 5299 5300 5301 5303 5306 5309 5312 5316
5329 5324 5319 5314 5309 5306 5303 5299 5296 5294 5292 5290 5289 5287 5286 5285 5284 5283 5283 5282 5282 5282 5282 5282 5283 5283 5284 5285 5287 5288 5288 5290 5291 5292 5295 5298 5301 5305
5316 5312 5307 5302 5298 5295 5292 5289 5286 5284 5281 5280 5278 5277 5276 5274 5273 5272 5272 5271 5272 5272 5272 5272 5272 5273 5274 5275 5276 5277 5278 5279 5281 5282 5284 5287 5291 5294
5303 5299 5295 5291 5287 5284 5282 5279 5276 5274 5271 5270 5268 5267 5265 5264 5263 5262 5261 5261 5261 5261 5261 5262 5262 5263 5265 5266 5267 5267 5268 5269 5271 5272 5275 5277 5280 5284
5291 5287 5283 5280 5277 5274 5271 5269 5266 5264 5262 5260 5258 5257 5255 5254 5253 5252 5251 5250 5250 5250 5251 5252 5252 5253 5255 5256 5257 5257 5259 5260 5261 5263 5265 5268 5270 5273
5280 5276 5273 5270 5267 5264 5261 5259 5256 5254 5252 5250 5248 5247 5245 5244 5243 5243 5241 5241 5240 5240 5241 5242 5243 5243 5245 5246 5247 5248 5249 5250 5252 5254 5256 5258 5261 5264
5271 5267 5263 5260 5257 5254 5252 5249 5247 5245 5243 5241 5239 5237 5236 5235 5234 5233 5232 5231 5231 5231 5231 5232 5232 5233 5234 5236 5237 5238 5239 5240 5242 5244 5246 5248 5251 5254
5262 5258 5254 5251 5248 5245 5242 5240 5237 5235 5233 5231 5229 5228 5226 5225 5224 5223 5223 5222 5222 5222 5222 5222 5223 5223 5225 5226 5227 5228 5229 5230 5232 5234 5236 5239 5241 5244
5252 5249 5245 5242 5239 5236 5233 5230 5228 5226 5224 5222 5220 5219 5217 5216 5215 5214 5214 5213 5213 5213 5213 5213 5213 5214 5215 5216 5217 5219 5219 5221 5222 5225 5227 5228 5231 5234